Tucson Davis Monthan, AZ

7:05 AM MST on December 09, 2019 (GMT -0700)
Davis-Monthan Air Force Base

Weather History for KDMA - October, 2019

Change the Weather History Date:

Monday, October 7, 2019

  Actual Average Record
Temperature  
Mean Temperature 77 °F -  
Max Temperature 95 °F 88 °F 101 °F (1987)
Min Temperature 59 °F 61 °F 46 °F (2007)
Cooling Degree Days 12    
Growing Degree Days 27 (Base 50)    
Moisture  
Dew Point 46 °F    
Average Humidity 34    
Maximum Humidity 56    
Minimum Humidity 19    
Precipitation  
Precipitation 0.00 in - - ()
Sea Level Pressure  
Sea Level Pressure 29.87 in    
Wind  
Wind Speed 7 mph (SSE)    
Max Wind Speed 16 mph    
Max Gust Speed 17 mph    
Visibility 10 miles    
Events      
Averages and records for this station are not official NWS values.
T = Trace of Precipitation, MM = Missing Value Source: NWS Daily Summary

Daily Weather History Graph

Daily Weather History Graph

Search for Another Location

Airport or City:

Astronomy

Oct. 07, 2019 Rise Set
Actual Time 6:21 AM MST 6:00 PM MST
Civil Twilight 5:56 AM MST 6:25 PM MST
Nautical Twilight 5:28 AM MST 6:53 PM MST
Astronomical Twilight 5:00 AM MST 7:22 PM MST
Moon 3:01 PM MST (10/7) 12:42 AM MST (10/7)
Length of Visible Light 12h 28m
Length of Day
11h 39m
Waxing Gibbous, 70% of the Moon is Illuminated
Oct 7
Waxing Gibbous
Oct 13
Full
Oct 21
Last Quarter
Oct 27
New
Nov 4
First Quarter

Hourly Weather History & Observations

Time (MST) Temp. Dew Point Humidity Pressure Visibility Wind Dir Wind Speed Gust Speed Precip Events Conditions
12:58 AM 63.3 °F 45.3 °F 52% 29.94 in 10.0 mi SE 5.8 mph - N/A   Clear
1:58 AM 63.5 °F 44.6 °F 50% 29.94 in 10.0 mi SSE 5.8 mph - N/A   Clear
2:58 AM 62.6 °F 43.7 °F 50% 29.93 in 10.0 mi South 8.1 mph - N/A   Clear
3:58 AM 63.3 °F 43.9 °F 49% 29.92 in 10.0 mi South 6.9 mph - N/A   Clear
4:58 AM 59.7 °F 44.1 °F 56% 29.94 in 10.0 mi SSE 6.9 mph - N/A   Clear
5:58 AM 60.3 °F 43.0 °F 53% 29.94 in 10.0 mi SE 8.1 mph - N/A   Clear
6:58 AM 64.0 °F 42.3 °F 45% 29.94 in 10.0 mi Calm Calm - N/A   Clear
7:56 AM 73.0 °F 42.3 °F 33% 29.94 in 10.0 mi South 4.6 mph - N/A   Clear
8:58 AM 81.1 °F 40.8 °F 24% 29.93 in 10.0 mi ESE 11.5 mph - N/A   Clear
9:58 AM 85.6 °F 44.6 °F 24% 29.94 in 10.0 mi Calm Calm - N/A   Clear
10:58 AM 89.2 °F 47.7 °F 24% 29.91 in 10.0 mi ESE 16.1 mph - N/A   Clear
12:48 PM 93.2 °F 48.2 °F 21% 29.86 in 10.0 mi SSE 11.5 mph 17.3 mph N/A   Clear
12:58 PM 93.6 °F 46.4 °F 20% 29.86 in 10.0 mi SE 11.5 mph - N/A   Clear
1:58 PM 94.8 °F 47.5 °F 20% 29.82 in 10.0 mi ESE 4.6 mph - N/A   Clear
2:58 PM 95.0 °F 46.2 °F 19% 29.81 in 9.0 mi SE 9.2 mph - N/A   Clear
3:58 PM 94.8 °F 47.5 °F 20% 29.79 in 10.0 mi East 5.8 mph - N/A   Clear
4:58 PM 93.6 °F 47.7 °F 21% 29.78 in 10.0 mi ESE 4.6 mph - N/A   Scattered Clouds
5:58 PM 90.3 °F 46.2 °F 22% 29.79 in 10.0 mi NW 8.1 mph - N/A   Mostly Cloudy
6:58 PM 86.0 °F 45.0 °F 24% 29.80 in 10.0 mi NW 5.8 mph - N/A   Scattered Clouds
7:02 PM 86.0 °F 44.6 °F 23% 29.80 in 10.0 mi NW 4.6 mph - N/A   Light Drizzle
7:10 PM 86.0 °F 44.6 °F 23% 29.81 in 10.0 mi NW 3.5 mph - N/A   Mostly Cloudy
7:58 PM 82.4 °F 46.0 °F 28% 29.92 in 10.0 mi NW 3.5 mph - 0.00 in   Mostly Cloudy
8:58 PM 77.0 °F 48.7 °F 37% 29.82 in 10.0 mi South 5.8 mph - N/A   Clear
9:58 PM 74.5 °F 52.3 °F 46% 29.81 in 10.0 mi SSE 6.9 mph - N/A   Clear
10:58 PM 72.5 °F 53.2 °F 51% 29.81 in 10.0 mi South 5.8 mph - N/A   Clear
11:58 PM 75.2 °F 51.1 °F 43% 29.81 in 10.0 mi SSE 5.8 mph - N/A   Partly Cloudy